Location: *
(44.5333°N, 8.2000°E)
Time: 17:16:12
(UTC+00:00)

Daily predictions for brighter satellites

Satellite Brightness Start Highest point End
(mag) Time Altitude Azimuth Time Altitude Azimuth Time Altitude Azimuth
Cosmos 2369 Rocket 4.0 16:48:00 10° WSW 16:52:59 31° NW 16:58:03 10° N
Cosmos 2297 Rocket 3.3 16:50:42 10° N 16:55:20 25° NE 16:59:57 10° ESE
CZ-4B R/B 1.3 16:55:20 10° NNE 16:58:33 57° E 17:01:40 10° S
Cosmos 1602 Rocket 4.1 16:54:23 10° NNW 16:58:50 66° W 17:03:15 10° S
USA 308 4.5 16:56:33 10° NW 17:00:01 23° N 17:03:26 10° ENE
FALCON 9 DEB 4.2 17:00:48 10° SSW 17:03:35 27° SE 17:06:17 11° ENE
Helios 1A Rocket 3.9 17:01:29 10° SE 17:04:57 27° ENE 17:08:26 10° N
Cosmos 292 Rocket 4.2 17:01:50 10° S 17:06:18 41° ESE 17:10:49 10° NE
Cosmos 2058 Rocket 4.0 17:03:19 10° SE 17:07:03 27° E 17:10:49 10° NNE
CORIOLIS 4.3 17:02:11 10° SSE 17:07:31 83° WSW 17:12:55 10° NNW
Cosmos 1953 Rocket 4.0 17:03:24 10° N 17:07:36 41° ENE 17:11:47 10° SSE
Cosmos 1939 Rocket 3.3 17:04:07 10° SE 17:07:50 38° ENE 17:11:30 10° N
Cosmos 1340 4.0 17:05:03 10° NNE 17:07:54 20° ENE 17:10:45 10° ESE
ERS-2 2.1 17:04:43 10° NNE 17:08:23 88° WNW 17:12:01 10° SSW
FALCON 9 DEB 3.8 17:07:09 10° SSW 17:10:04 33° SE 17:12:33 13° ENE
Cosmos 1328 4.2 17:11:42 10° NNW 17:15:38 69° W 17:19:32 10° S
SAR-Lupe-4 3.6 17:12:52 10° NNE 17:16:26 60° ESE 17:19:58 10° S
PSLV R/B 4.5 17:13:14 10° NNE 17:17:09 37° E 17:21:00 10° SSE
SMAP 4.0 17:13:11 10° S 17:17:43 53° W 17:22:18 10° NNW
FALCON 9 DEB 3.6 17:16:20 10° SSW 17:19:22 38° SE 17:21:32 16° ENE
Cosmos 1331 Rocket 3.9 17:15:42 10° SSW 17:20:51 76° ESE 17:26:01 10° NNE
Cosmos 2219 3.7 17:17:15 10° NNW 17:22:39 40° ENE 17:28:02 10° SE
Cosmos 2058 4.3 17:21:44 10° NNE 17:24:32 17° ENE 17:25:31 16° E
Timation 2 Rocket 4.1 17:20:49 10° NNW 17:27:23 66° ENE 17:34:08 10° SE
CZ-4 R/B 1.9 17:24:05 10° SE 17:27:38 34° ENE 17:31:10 10° N
Aureole 3 3.1 17:29:29 10° SSE 17:32:37 40° E 17:35:29 10° NNE
COSMO-SKYMED 1 2.5 17:28:20 10° NNE 17:32:40 68° E 17:37:00 10° S
FALCON 9 DEB 3.1 17:29:54 10° SW 17:33:03 54° SE 17:34:45 24° ENE
SAR-Lupe-1 4.0 17:30:30 10° NNE 17:34:06 88° WNW 17:37:42 10° SSW
SeaSat 1 3.6 17:32:11 17° E 17:34:32 25° NE 17:38:29 10° N
Cosmos 1400 Rocket 3.0 17:31:37 10° S 17:35:35 48° E 17:39:33 10° NNE
USA 215 4.2 17:33:06 15° ENE 17:37:44 33° NNE 17:43:26 10° NW
Okean O Rocket 3.7 17:34:04 10° SSW 17:37:58 31° W 17:41:52 10° NNW
ATLAS 2AS CENTAUR R/B 4.3 17:34:50 10° NNW 17:40:31 21° NNE 17:44:29 14° ENE
CZ-2C R/B 3.5 17:36:41 10° SE 17:42:16 50° ENE 17:47:45 10° N
Cosmos 968 Rocket 4.0 17:39:46 10° N 17:44:39 38° ENE 17:47:57 18° ESE
Cosmos 1825 Rocket 4.5 17:41:20 10° NNW 17:45:40 52° W 17:49:57 10° S
ATLAS 5 CENTAUR R/B 4.2 17:44:11 10° NW 17:46:03 12° NNW 17:48:02 10° N
USA 305 4.2 17:43:37 10° NW 17:47:20 27° NNE 17:49:00 21° NE
YAOGAN 1 2.6 17:43:55 10° SSE 17:48:06 52° ENE 17:52:19 10° N
Cosmos 1689 Rocket 2.3 17:46:23 10° N 17:49:16 66° WNW 17:52:07 10° SSW
Milstar 3 4.4 17:44:47 10° SW 17:49:39 20° S 17:54:02 12° SE
Cosmos 1302 Rocket 3.9 17:44:57 10° S 17:50:09 71° ESE 17:55:26 10° NNE
Meteor 2-10 Rocket 4.0 17:45:43 10° SSE 17:50:38 38° E 17:55:24 10° NNE
ARGOS 3.8 17:50:29 20° ESE 17:53:24 34° ENE 17:58:14 10° N
USA 306 4.1 17:49:55 10° NW 17:53:41 28° NNE 17:55:01 24° NE
Cosmos 1553 Rocket 4.0 17:47:40 10° S 17:53:56 63° E 18:00:10 10° NNE
Cosmos 1486 Rocket 4.2 17:50:34 10° N 17:55:46 49° ENE 17:59:22 19° SE
Meteor 2-8 Rocket 4.3 17:50:41 10° S 17:56:44 78° E 18:02:54 10° N
SL-08 ROCKET BODY 4.5 17:51:59 10° N 17:58:00 57° ENE 18:04:03 10° SSE
Cosmos 2227 Rocket 2.2 17:54:00 10° NNW 17:59:36 57° ENE 18:03:35 19° SE
SL-4 R/B 3.2 17:57:36 10° WNW 18:00:41 26° N 18:01:41 23° NNE
Cosmos 1726 Rocket 4.4 17:56:51 10° SSW 18:01:04 51° WNW 18:05:21 10° N
Cosmos 1656 3.6 17:56:09 10° S 18:01:36 62° ESE 18:07:10 10° NNE
Cosmos 1892 2.7 17:59:02 10° N 18:02:54 59° E 18:05:38 18° SSE
Cosmos 1346 Rocket 3.0 18:02:12 10° N 18:06:03 45° ENE 18:06:07 45° E
Okean-O 2.7 18:03:13 10° S 18:07:39 76° WSW 18:12:06 10° NNW
CSL-04 Rocket 3.7 18:02:26 10° SSE 18:07:53 59° ENE 18:13:19 10° N
CZ-2D R/B 3.9 18:04:34 10° S 18:08:19 56° W 18:12:05 10° NNW
Cosmos 2263 Rocket 4.0 18:05:12 10° N 18:07:58 15° NE 18:07:58 15° NE
BREEZE-M R/B 4.1 18:04:21 10° WNW 18:08:21 52° N 18:11:38 29° ENE
DMSP B5D1-3 4.5 18:04:09 10° NNE 18:09:15 60° E 18:14:20 10° S
MOS 1 Rocket 3.3 18:05:16 10° NNE 18:09:50 54° E 18:14:39 10° S
Aureole 3 Rocket 3.3 18:07:11 10° SSW 18:10:50 67° W 18:15:51 10° N
SJ-11-01 4.2 18:11:33 17° SSE 18:15:08 66° ENE 18:19:47 10° N
GEOS 3 Rocket 3.6 18:12:44 29° SE 18:15:34 75° NE 18:20:58 10° NW
Cosmos 1697 Rocket 2.9 18:12:22 10° S 18:17:40 45° ESE 18:18:40 40° E
Meteor 2-15 Rocket 4.4 18:12:06 10° S 18:18:07 60° E 18:24:10 10° NNE
SL-08 R/B 4.5 18:14:11 10° N 18:20:23 82° W 18:26:29 10° S
Cosmos 1745 Rocket 3.9 18:14:11 10° N 18:20:29 74° E 18:26:49 10° SSE
Cosmos 44 4.1 18:16:27 10° WSW 18:20:47 46° NW 18:24:23 16° NNE
CZ-4C R/B 4.3 18:18:00 10° NNW 18:22:41 19° NNE 18:24:33 18° NE
Lacrosse 5 3.7 18:21:39 10° NW 18:25:20 20° N 18:26:52 17° NNE
Cosmos 1408 3.7 18:23:38 10° N 18:25:49 34° N 18:25:49 34° N
H-2A R/B 2.0 18:22:06 10° SSE 18:27:30 84° ENE 18:32:59 10° NNW
Cosmos 1825 4.4 18:25:55 10° N 18:26:45 16° N 18:26:45 16° N
Meteor 2-15 4.4 18:25:21 10° S 18:31:30 87° W 18:37:41 10° N
Cosmos 1992 Rocket 3.8 18:26:35 10° S 18:31:44 66° ESE 18:32:52 51° NE
USA 307 3.8 18:32:01 10° NW 18:35:30 38° N 18:35:30 38° N
Cosmos 1386 Rocket 4.5 18:31:56 10° N 18:38:23 87° W 18:44:44 10° S
Cosmos 1980 Rocket 4.3 18:34:21 10° S 18:34:49 12° SSE 18:34:49 12° SSE
Cosmos 2297 Rocket 2.7 18:34:14 10° NNW 18:39:48 59° WSW 18:44:22 15° S
Ariane Rocket 4.2 18:41:47 29° NNE 18:41:47 29° NNE 18:44:36 10° N
USA 308 3.9 18:36:49 10° NW 18:40:06 37° N 18:40:06 37° N
Geosat 4.5 18:40:17 15° NNE 18:44:20 60° WNW 18:49:16 10° SW
BREEZE-M R/B 4.4 18:41:17 10° WNW 18:45:14 35° NW 18:45:14 35° NW
Cosmos 1709 Rocket 3.9 18:44:10 10° N 18:50:33 72° E 18:51:43 58° SE
Cosmos 2058 4.1 18:57:47 10° NNW 19:01:37 39° W 19:01:47 39° W
CZ-4 R/B 4.0 18:59:58 10° SW 19:02:46 19° W 19:05:32 10° NW
Cosmos 883 Rocket 4.4 18:59:57 10° S 19:06:07 83° W 19:12:17 10° N
BREEZE-M TANK 3.7 19:04:13 10° WNW 19:07:55 42° W 19:07:55 42° W
NOSS 3-4 (A) 4.2 19:04:23 10° NNW 19:10:30 47° NNE 19:10:30 47° NNE
NOSS 3-4 (C) 4.2 19:04:30 10° NNW 19:10:36 47° NNE 19:10:36 47° NNE
SeaSat 1 3.0 19:11:59 56° W 19:11:59 56° W 19:16:36 10° NW
Cosmos 2082 4.0 19:11:26 10° NNW 19:16:56 65° W 19:16:56 65° W
NOSS 3-3 (A) 4.0 19:13:37 10° SW 19:19:19 73° WNW 19:19:19 73° WNW
NOSS 3-3 (C) 4.0 19:13:42 10° SW 19:19:26 73° WNW 19:19:26 73° WNW
USA 215 3.4 19:20:27 62° NNE 19:20:27 62° NNE 19:26:31 10° NW
Cosmos 2369 4.4 19:21:56 10° SW 19:26:16 48° WSW 19:26:16 48° WSW
Atlas Centaur 2 4.2 19:21:33 10° SW 19:27:34 28° S 19:27:34 28° S
ATLAS 2AS CENTAUR R/B 3.4 19:26:03 10° NNW 19:31:55 45° N 19:31:55 45° N
Cosmos 2227 Rocket 4.3 19:38:54 10° NW 19:43:11 22° W 19:45:29 17° SW
Cosmos 2263 Rocket 4.1 19:47:39 10° NNW 19:49:40 23° NNW 19:49:40 23° NNW
Cosmos 1697 Rocket 4.4 19:56:50 10° WSW 20:00:30 28° WNW 20:00:30 28° WNW
CZ-4C R/B 4.1 20:06:06 10° NNW 20:09:44 31° N 20:09:44 31° N
